User: anonymous   Login
Location: Unspecified
(0.0000°N, 0.0000°E)
Time: 20:10:01
(UTC+00:00)
Language:

STARLINK-33707 - Orbit

View from above orbital plane
View from above orbital plane
View from above satellite
View from above satellite

Ground track
Ground track

The orbit is defined by the following mean orbital elements,

1 63401U          26145.40221350 +.00000000 +00000-0 +52244-3 0 00002
2 63401  43.0074  33.7152 0001030 253.2450 106.8289 15.27583153    04
Epoch (UTC): 25 May 2026 09:39:11
Eccentricity: 0.0001030
inclination: 43.0074°
perigee height: 482 km
apogee height: 484 km
right ascension of ascending node: 33.7152°
argument of perigee: 253.2450°
revolutions per day: 15.27583153
mean anomaly at epoch: 106.8289°

The dashed part of the orbit path shows where the satellite is in the earth's shadow,  

DLR